| time (UTC) | temp F | wind direction | speed MPH | gust MPH | rain 1hr in | rain 24hr in | rain mn in | humidity % | barometer mb |
| 20260502215905 | 60 | 263 | 4.0 | 14.0 | 0.00 | 0.01 | 0.01 | 35 | 1008.2 |
| 20260502214905 | 60 | 279 | 1.0 | 13.0 | 0.00 | 0.01 | 0.01 | 35 | 1008.3 |
| 20260502214405 | 60 | 327 | 3.0 | 8.0 | 0.00 | 0.01 | 0.01 | 35 | 1008.2 |
| 20260502213404 | 60 | 332 | 3.0 | 10.0 | 0.00 | 0.01 | 0.01 | 37 | 1008.1 |
| 20260502212904 | 60 | 251 | 1.0 | 6.0 | 0.00 | 0.01 | 0.01 | 37 | 1008.1 |
| 20260502212405 | 60 | 320 | 1.0 | 6.0 | 0.00 | 0.01 | 0.01 | 37 | 1008.0 |
| 20260502211906 | 61 | 342 | 2.0 | 12.0 | 0.00 | 0.01 | 0.01 | 38 | 1007.9 |
| 20260502211404 | 60 | 292 | 1.0 | 12.0 | 0.00 | 0.01 | 0.01 | 36 | 1007.9 |
| 20260502210904 | 59 | 2 | 0.0 | 12.0 | 0.00 | 0.01 | 0.01 | 36 | 1008.0 |
| 20260502210405 | 59 | 316 | 2.0 | 12.0 | 0.00 | 0.01 | 0.01 | 37 | 1008.0 |
| 20260502205905 | 60 | 308 | 4.0 | 12.0 | 0.00 | 0.01 | 0.01 | 37 | 1008.0 |
| 20260502205405 | 60 | 324 | 2.0 | 9.0 | 0.00 | 0.01 | 0.01 | 38 | 1007.9 |
| 20260502204904 | 60 | 268 | 1.0 | 6.0 | 0.00 | 0.01 | 0.01 | 37 | 1007.9 |
| 20260502204405 | 61 | 323 | 3.0 | 10.0 | 0.00 | 0.01 | 0.01 | 40 | 1007.9 |
| 20260502203905 | 60 | 308 | 0.0 | 3.0 | 0.00 | 0.01 | 0.01 | 36 | 1007.9 |
| 20260502203403 | 60 | 267 | 1.0 | 6.0 | 0.00 | 0.01 | 0.01 | 38 | 1008.1 |
| 20260502202904 | 59 | 9 | 2.0 | 8.0 | 0.00 | 0.01 | 0.01 | 39 | 1008.0 |
| 20260502202404 | 59 | 346 | 2.0 | 9.0 | 0.00 | 0.01 | 0.01 | 37 | 1008.2 |
| 20260502201904 | 60 | 262 | 2.0 | 9.0 | 0.00 | 0.01 | 0.01 | 36 | 1008.2 |
| 20260502201404 | 62 | 325 | 3.0 | 12.0 | 0.00 | 0.01 | 0.01 | 38 | 1008.3 |
| 20260502200904 | 62 | 314 | 1.0 | 10.0 | 0.00 | 0.01 | 0.01 | 40 | 1008.4 |
| 20260502200404 | 61 | 258 | 3.0 | 9.0 | 0.00 | 0.01 | 0.01 | 37 | 1008.4 |
| 20260502194904 | 61 | 294 | 4.0 | 9.0 | 0.00 | 0.01 | 0.01 | 38 | 1008.6 |
| 20260502194404 | 62 | 279 | 5.0 | 13.0 | 0.00 | 0.01 | 0.01 | 37 | 1008.7 |
| 20260502193904 | 61 | 264 | 1.0 | 9.0 | 0.00 | 0.01 | 0.01 | 38 | 1008.7 |
| 20260502193404 | 61 | 337 | 3.0 | 10.0 | 0.00 | 0.01 | 0.01 | 44 | 1008.8 |
| 20260502192904 | 61 | 313 | 7.0 | 13.0 | 0.00 | 0.01 | 0.01 | 41 | 1008.8 |
| 20260502192404 | 61 | 309 | 6.0 | 12.0 | 0.00 | 0.01 | 0.01 | 39 | 1008.9 |
| 20260502191905 | 61 | 293 | 5.0 | 14.0 | 0.00 | 0.01 | 0.01 | 40 | 1009.1 |
| 20260502191404 | 60 | 319 | 5.0 | 12.0 | 0.00 | 0.01 | 0.01 | 41 | 1009.1 |
| 20260502190904 | 59 | 282 | 3.0 | 12.0 | 0.00 | 0.01 | 0.01 | 40 | 1009.1 |
| 20260502190404 | 59 | 20 | 1.0 | 5.0 | 0.00 | 0.01 | 0.01 | 42 | 1009.1 |
| 20260502185904 | 60 | 46 | 0.0 | 2.0 | 0.00 | 0.01 | 0.01 | 39 | 1009.2 |
| 20260502185404 | 60 | 351 | 0.0 | 6.0 | 0.00 | 0.01 | 0.01 | 42 | 1009.2 |
| 20260502184904 | 60 | 250 | 0.0 | 7.0 | 0.00 | 0.01 | 0.01 | 44 | 1009.3 |
| 20260502184406 | 61 | 33 | 1.0 | 9.0 | 0.00 | 0.01 | 0.01 | 45 | 1009.3 |
| 20260502183905 | 59 | 340 | 0.0 | 9.0 | 0.00 | 0.01 | 0.01 | 42 | 1009.3 |
| 20260502183404 | 59 | 265 | 2.0 | 8.0 | 0.00 | 0.01 | 0.01 | 45 | 1009.4 |
| 20260502182904 | 58 | 269 | 3.0 | 9.0 | 0.00 | 0.01 | 0.01 | 48 | 1009.5 |
| 20260502182405 | 58 | 47 | 0.0 | 8.0 | 0.00 | 0.01 | 0.01 | 47 | 1009.5 |
| 20260502181905 | 59 | 354 | 0.0 | 6.0 | 0.00 | 0.01 | 0.01 | 48 | 1009.5 |
| 20260502181404 | 58 | 307 | 2.0 | 7.0 | 0.00 | 0.01 | 0.01 | 46 | 1009.5 |
| 20260502180904 | 60 | 258 | 2.0 | 12.0 | 0.00 | 0.01 | 0.01 | 46 | 1009.5 |
| 20260502170404 | 58 | 18 | 1.0 | 9.0 | 0.00 | 0.01 | 0.01 | 54 | 1010.2 |
| 20260502163904 | 57 | 323 | 1.0 | 9.0 | 0.00 | 0.01 | 0.01 | 54 | 1010.5 |
| 20260502163405 | 57 | 280 | 2.0 | 12.0 | 0.00 | 0.01 | 0.01 | 57 | 1010.4 |
| 20260502162406 | 56 | 305 | 2.0 | 12.0 | 0.00 | 0.01 | 0.01 | 55 | 1010.3 |
| 20260502161905 | 57 | 308 | 5.0 | 12.0 | 0.00 | 0.01 | 0.01 | 58 | 1010.3 |
| 20260502161404 | 56 | 270 | 2.0 | 9.0 | 0.00 | 0.01 | 0.01 | 55 | 1010.3 |
| 20260502160904 | 56 | 315 | 2.0 | 8.0 | 0.00 | 0.01 | 0.01 | 59 | 1010.3 |
| 20260502160404 | 56 | 290 | 4.0 | 8.0 | 0.00 | 0.01 | 0.01 | 55 | 1010.4 |
| 20260502151904 | 55 | 301 | 0.0 | 8.0 | 0.00 | 0.01 | 0.01 | 63 | 1010.6 |
| 20260502151406 | 54 | 354 | 0.0 | 1.0 | 0.00 | 0.01 | 0.01 | 65 | 1010.5 |
| 20260502150405 | 54 | 300 | 3.0 | 10.0 | 0.00 | 0.01 | 0.01 | 65 | 1010.5 |
| 20260502130404 | 51 | 301 | 1.0 | 8.0 | 0.00 | 0.01 | 0.01 | 77 | 1010.9 |
| 20260502123404 | 52 | 326 | 3.0 | 7.0 | 0.00 | 0.01 | 0.01 | 78 | 1010.7 |
| 20260502122904 | 51 | 236 | 5.0 | 9.0 | 0.00 | 0.01 | 0.01 | 77 | 1010.6 |
| 20260502122404 | 51 | 279 | 1.0 | 8.0 | 0.00 | 0.01 | 0.01 | 79 | 1010.7 |
| 20260502121905 | 51 | 298 | 1.0 | 6.0 | 0.00 | 0.01 | 0.01 | 79 | 1010.6 |
| 20260502121404 | 51 | 245 | 0.0 | 6.0 | 0.00 | 0.01 | 0.01 | 80 | 1010.5 |
| 20260502115404 | 50 | 36 | 0.0 | 0.0 | 0.00 | 0.01 | 0.01 | 84 | 1010.4 |
| 20260502114904 | 50 | 36 | 0.0 | 0.0 | 0.00 | 0.01 | 0.01 | 84 | 1010.3 |
| 20260502114404 | 50 | 36 | 0.0 | 0.0 | 0.00 | 0.01 | 0.01 | 86 | 1010.4 |
| 20260502113904 | 50 | 36 | 0.0 | 0.0 | 0.00 | 0.01 | 0.01 | 86 | 1010.4 |
| 20260502112404 | 50 | 36 | 0.0 | 0.0 | 0.00 | 0.01 | 0.01 | 87 | 1010.5 |
| 20260502111904 | 49 | 36 | 0.0 | 0.0 | 0.00 | 0.01 | 0.01 | 88 | 1010.5 |
| 20260502111405 | 49 | 36 | 0.0 | 0.0 | 0.00 | 0.01 | 0.01 | 88 | 1010.3 |
| 20260502110904 | 49 | 36 | 0.0 | 0.0 | 0.00 | 0.01 | 0.01 | 89 | 1010.2 |
| 20260502110404 | 48 | 36 | 0.0 | 0.0 | 0.00 | 0.01 | 0.01 | 89 | 1010.4 |
| 20260502105405 | 48 | 36 | 0.0 | 0.0 | 0.00 | 0.01 | 0.01 | 88 | 1010.1 |
| 20260502104904 | 48 | 36 | 0.0 | 0.0 | 0.00 | 0.01 | 0.01 | 88 | 1010.0 |
| 20260502104405 | 48 | 36 | 0.0 | 0.0 | 0.00 | 0.01 | 0.01 | 87 | 1009.9 |
| 20260502103906 | 48 | 36 | 0.0 | 0.0 | 0.01 | 0.01 | 0.01 | 87 | 1009.8 |
| 20260502103406 | 48 | 36 | 0.0 | 0.0 | 0.01 | 0.01 | 0.01 | 86 | 1009.7 |
| 20260502102904 | 48 | 36 | 0.0 | 0.0 | 0.01 | 0.01 | 0.01 | 86 | 1009.9 |
| 20260502102406 | 48 | 36 | 0.0 | 0.0 | 0.01 | 0.01 | 0.01 | 85 | 1009.9 |
| 20260502101904 | 48 | 36 | 0.0 | 0.0 | 0.01 | 0.01 | 0.01 | 84 | 1009.8 |
| 20260502101405 | 49 | 36 | 0.0 | 0.0 | 0.01 | 0.01 | 0.01 | 84 | 1009.8 |
| 20260502100904 | 49 | 36 | 0.0 | 0.0 | 0.01 | 0.01 | 0.01 | 84 | 1009.6 |
| 20260502100405 | 49 | 36 | 0.0 | 0.0 | 0.01 | 0.01 | 0.01 | 84 | 1009.6 |
| 20260502091404 | 50 | 0 | 0.0 | 0.0 | 0.00 | 0.00 | 0.00 | 80 | 1010.2 |
| 20260502090904 | 50 | 0 | 0.0 | 0.0 | 0.00 | 0.00 | 0.00 | 80 | 1010.2 |
| 20260502090405 | 50 | 5 | 0.0 | 0.0 | 0.00 | 0.00 | 0.00 | 80 | 1009.9 |
| 20260502071404 | 52 | 254 | 0.0 | 0.0 | 0.00 | 0.00 | 0.00 | 71 | 1009.3 |
| 20260502070904 | 52 | 254 | 0.0 | 0.0 | 0.00 | 0.00 | 0.00 | 70 | 1009.4 |
| 20260502070404 | 52 | 254 | 0.0 | 3.0 | 0.00 | 0.00 | 0.00 | 68 | 1009.6 |
| 20260502065904 | 53 | 252 | 0.0 | 1.0 | 0.00 | 0.00 | 0.00 | 67 | 1009.6 |
| 20260502065404 | 53 | 227 | 0.0 | 3.0 | 0.00 | 0.00 | 0.00 | 64 | 1009.7 |
| 20260502064905 | 53 | 167 | 1.0 | 7.0 | 0.00 | 0.00 | 0.00 | 63 | 1009.8 |
| 20260502064405 | 54 | 192 | 1.0 | 5.0 | 0.00 | 0.00 | 0.00 | 62 | 1009.8 |
| 20260502063405 | 54 | 221 | 1.0 | 6.0 | 0.00 | 0.00 | 0.00 | 62 | 1009.8 |
| 20260502062904 | 54 | 197 | 1.0 | 5.0 | 0.00 | 0.00 | 0.00 | 61 | 1009.7 |
| 20260502062404 | 54 | 217 | 0.0 | 3.0 | 0.00 | 0.00 | 0.00 | 61 | 1009.7 |
| 20260502061904 | 54 | 213 | 0.0 | 5.0 | 0.00 | 0.00 | 0.00 | 62 | 1009.8 |
| 20260502060904 | 54 | 211 | 1.0 | 3.0 | 0.00 | 0.00 | 0.00 | 62 | 1010.0 |
| 20260502055904 | 54 | 230 | 0.0 | 3.0 | 0.00 | 0.00 | 0.00 | 61 | 1010.0 |
| 20260502055406 | 54 | 230 | 3.0 | 5.0 | 0.00 | 0.00 | 0.00 | 61 | 1009.9 |
| 20260502054904 | 54 | 237 | 1.0 | 7.0 | 0.00 | 0.00 | 0.00 | 61 | 1009.9 |
| 20260502054404 | 54 | 207 | 1.0 | 6.0 | 0.00 | 0.00 | 0.00 | 61 | 1009.9 |
| 20260502053904 | 54 | 209 | 1.0 | 5.0 | 0.00 | 0.00 | 0.00 | 62 | 1009.9 |
| 20260502052905 | 54 | 207 | 2.0 | 5.0 | 0.00 | 0.00 | 0.00 | 62 | 1010.1 |
| 20260502052405 | 54 | 209 | 3.0 | 9.0 | 0.00 | 0.00 | 0.00 | 62 | 1010.2 |
| 20260502051904 | 54 | 213 | 2.0 | 7.0 | 0.00 | 0.00 | 0.00 | 63 | 1010.2 |
| 20260502051404 | 54 | 220 | 1.0 | 8.0 | 0.00 | 0.00 | 0.00 | 64 | 1010.1 |
| 20260502050904 | 54 | 209 | 1.0 | 5.0 | 0.00 | 0.00 | 0.00 | 65 | 1010.1 |
| 20260502050404 | 54 | 237 | 3.0 | 9.0 | 0.00 | 0.00 | 0.00 | 65 | 1010.0 |
| 20260502045904 | 54 | 216 | 1.0 | 5.0 | 0.00 | 0.00 | 0.00 | 65 | 1010.0 |
| 20260502045405 | 54 | 221 | 1.0 | 5.0 | 0.00 | 0.00 | 0.00 | 66 | 1010.0 |
| 20260502044906 | 54 | 220 | 0.0 | 1.0 | 0.00 | 0.00 | 0.00 | 69 | 1009.8 |
| 20260502044405 | 54 | 250 | 0.0 | 7.0 | 0.00 | 0.00 | 0.00 | 69 | 1009.9 |
| 20260502043904 | 54 | 200 | 0.0 | 5.0 | 0.00 | 0.00 | 0.00 | 70 | 1009.9 |
| 20260502042905 | 54 | 187 | 0.0 | 3.0 | 0.00 | 0.00 | 0.00 | 71 | 1010.0 |
| 20260502042404 | 54 | 182 | 0.0 | 3.0 | 0.00 | 0.00 | 0.00 | 72 | 1010.0 |
| 20260502041905 | 54 | 169 | 0.0 | 0.0 | 0.00 | 0.00 | 0.00 | 72 | 1010.2 |
| 20260502041404 | 54 | 170 | 0.0 | 2.0 | 0.00 | 0.00 | 0.00 | 71 | 1010.2 |
| 20260502040905 | 54 | 170 | 0.0 | 2.0 | 0.00 | 0.00 | 0.00 | 72 | 1010.2 |
| 20260502040405 | 54 | 171 | 0.0 | 0.0 | 0.00 | 0.00 | 0.00 | 74 | 1010.0 |
| 20260502034905 | 53 | 139 | 0.0 | 0.0 | 0.00 | 0.00 | 0.00 | 77 | 1010.1 |
| 20260502034404 | 53 | 139 | 0.0 | 0.0 | 0.00 | 0.00 | 0.00 | 77 | 1010.1 |
| 20260502033905 | 53 | 140 | 0.0 | 0.0 | 0.00 | 0.00 | 0.00 | 77 | 1010.1 |
| 20260502033404 | 53 | 300 | 0.0 | 0.0 | 0.00 | 0.00 | 0.00 | 77 | 1010.0 |
| 20260502032904 | 53 | 299 | 0.0 | 0.0 | 0.00 | 0.00 | 0.00 | 77 | 1010.0 |
| 20260502032405 | 53 | 300 | 0.0 | 0.0 | 0.00 | 0.00 | 0.00 | 76 | 1010.0 |
| 20260502031904 | 53 | 300 | 0.0 | 0.0 | 0.00 | 0.00 | 0.00 | 76 | 1010.0 |
| 20260502031405 | 53 | 300 | 0.0 | 0.0 | 0.00 | 0.00 | 0.00 | 76 | 1010.0 |
| 20260502030904 | 53 | 300 | 0.0 | 0.0 | 0.00 | 0.00 | 0.00 | 75 | 1010.1 |
| 20260502025905 | 53 | 304 | 0.0 | 1.0 | 0.00 | 0.00 | 0.00 | 74 | 1010.2 |
| 20260502025405 | 53 | 187 | 0.0 | 0.0 | 0.00 | 0.00 | 0.00 | 74 | 1010.3 |
| 20260502024905 | 53 | 189 | 0.0 | 6.0 | 0.00 | 0.00 | 0.00 | 74 | 1010.3 |
| 20260502024405 | 53 | 177 | 2.0 | 7.0 | 0.00 | 0.00 | 0.00 | 74 | 1010.2 |
| 20260502023905 | 53 | 177 | 1.0 | 5.0 | 0.00 | 0.00 | 0.00 | 73 | 1010.0 |
| 20260502023404 | 53 | 178 | 2.0 | 7.0 | 0.00 | 0.00 | 0.00 | 73 | 1010.1 |
| 20260502022904 | 53 | 190 | 1.0 | 8.0 | 0.00 | 0.00 | 0.00 | 73 | 1010.2 |
| 20260502022404 | 53 | 172 | 1.0 | 6.0 | 0.00 | 0.00 | 0.00 | 73 | 1010.2 |
| 20260502021904 | 53 | 176 | 2.0 | 7.0 | 0.00 | 0.00 | 0.00 | 73 | 1010.2 |
| 20260502021404 | 53 | 170 | 3.0 | 8.0 | 0.00 | 0.00 | 0.00 | 72 | 1010.1 |
| 20260502020404 | 53 | 147 | 2.0 | 6.0 | 0.00 | 0.00 | 0.00 | 72 | 1010.1 |
| 20260502015903 | 53 | 172 | 1.0 | 6.0 | 0.00 | 0.00 | 0.00 | 71 | 1010.0 |
| 20260502015404 | 53 | 180 | 0.0 | 3.0 | 0.00 | 0.00 | 0.00 | 71 | 1010.0 |
| 20260502014904 | 53 | 183 | 1.0 | 5.0 | 0.00 | 0.00 | 0.00 | 71 | 1010.1 |
| 20260502014404 | 54 | 180 | 0.0 | 5.0 | 0.00 | 0.00 | 0.00 | 70 | 1010.0 |
| 20260502013904 | 54 | 188 | 0.0 | 6.0 | 0.00 | 0.00 | 0.00 | 69 | 1009.9 |
| 20260502013404 | 54 | 182 | 1.0 | 6.0 | 0.00 | 0.00 | 0.00 | 69 | 1009.9 |
| 20260502012904 | 54 | 166 | 0.0 | 7.0 | 0.00 | 0.00 | 0.00 | 68 | 1009.8 |
| 20260502012404 | 54 | 173 | 2.0 | 8.0 | 0.00 | 0.00 | 0.00 | 68 | 1009.8 |
| 20260502011404 | 55 | 161 | 2.0 | 8.0 | 0.00 | 0.00 | 0.00 | 67 | 1009.7 |
| 20260502010904 | 55 | 173 | 2.0 | 8.0 | 0.00 | 0.00 | 0.00 | 67 | 1009.6 |
| 20260502010405 | 55 | 176 | 2.0 | 8.0 | 0.00 | 0.00 | 0.00 | 66 | 1009.6 |
| 20260502005905 | 55 | 175 | 1.0 | 7.0 | 0.00 | 0.00 | 0.00 | 66 | 1009.6 |
| 20260502005404 | 55 | 180 | 1.0 | 6.0 | 0.00 | 0.00 | 0.00 | 65 | 1009.6 |
| 20260502004905 | 56 | 172 | 2.0 | 7.0 | 0.00 | 0.00 | 0.00 | 65 | 1009.6 |
| 20260502004406 | 56 | 187 | 0.0 | 7.0 | 0.00 | 0.00 | 0.00 | 64 | 1009.6 |
| 20260502003904 | 56 | 168 | 1.0 | 3.0 | 0.00 | 0.00 | 0.00 | 64 | 1009.6 |
| 20260502003405 | 56 | 190 | 1.0 | 3.0 | 0.00 | 0.00 | 0.00 | 63 | 1009.6 |
| 20260502002904 | 56 | 184 | 1.0 | 5.0 | 0.00 | 0.00 | 0.00 | 62 | 1009.5 |
| 20260502002404 | 56 | 171 | 1.0 | 6.0 | 0.00 | 0.00 | 0.00 | 62 | 1009.5 |
| 20260502001905 | 56 | 176 | 1.0 | 7.0 | 0.00 | 0.00 | 0.00 | 61 | 1009.4 |
| 20260502001405 | 56 | 161 | 1.0 | 6.0 | 0.00 | 0.00 | 0.00 | 60 | 1009.4 |
| 20260502000904 | 57 | 162 | 3.0 | 7.0 | 0.00 | 0.00 | 0.00 | 59 | 1009.3 |
| 20260502000405 | 57 | 160 | 1.0 | 6.0 | 0.00 | 0.00 | 0.00 | 59 | 1009.2 |
| 20260501235904 | 57 | 188 | 3.0 | 10.0 | 0.00 | 0.00 | 0.00 | 59 | 1009.2 |
| 20260501235404 | 57 | 180 | 5.0 | 10.0 | 0.00 | 0.00 | 0.00 | 58 | 1009.2 |
| 20260501234904 | 57 | 155 | 4.0 | 10.0 | 0.00 | 0.00 | 0.00 | 57 | 1009.1 |
| 20260501234404 | 57 | 159 | 2.0 | 9.0 | 0.00 | 0.00 | 0.00 | 58 | 1009.1 |
| 20260501233904 | 57 | 160 | 3.0 | 10.0 | 0.00 | 0.00 | 0.00 | 58 | 1009.0 |
| 20260501233405 | 57 | 164 | 3.0 | 9.0 | 0.00 | 0.00 | 0.00 | 58 | 1009.0 |
| 20260501232904 | 57 | 168 | 5.0 | 12.0 | 0.00 | 0.00 | 0.00 | 57 | 1009.0 |
| 20260501232405 | 57 | 170 | 5.0 | 12.0 | 0.00 | 0.00 | 0.00 | 57 | 1008.9 |
| 20260501231905 | 57 | 154 | 1.0 | 6.0 | 0.00 | 0.00 | 0.00 | 56 | 1008.8 |
| 20260501230905 | 58 | 155 | 1.0 | 8.0 | 0.00 | 0.00 | 0.00 | 55 | 1008.8 |
| 20260501230404 | 58 | 169 | 3.0 | 12.0 | 0.00 | 0.00 | 0.00 | 55 | 1008.8 |
| 20260501225905 | 58 | 149 | 3.0 | 12.0 | 0.00 | 0.00 | 0.00 | 55 | 1008.7 |
| 20260501225405 | 58 | 160 | 6.0 | 12.0 | 0.00 | 0.00 | 0.00 | 54 | 1008.6 |
| 20260501224904 | 58 | 145 | 3.0 | 9.0 | 0.00 | 0.00 | 0.00 | 55 | 1008.6 |
| 20260501223906 | 58 | 170 | 7.0 | 13.0 | 0.00 | 0.00 | 0.00 | 53 | 1008.6 |
| 20260501223405 | 58 | 172 | 5.0 | 13.0 | 0.00 | 0.00 | 0.00 | 53 | 1008.7 |
| 20260501222404 | 58 | 164 | 6.0 | 10.0 | 0.00 | 0.00 | 0.00 | 53 | 1008.7 |
| 20260501221905 | 58 | 172 | 4.0 | 14.0 | 0.00 | 0.00 | 0.00 | 53 | 1008.7 |
| 20260501221406 | 58 | 178 | 10.0 | 16.0 | 0.00 | 0.00 | 0.00 | 52 | 1008.7 |
| 20260501220905 | 58 | 168 | 6.0 | 12.0 | 0.00 | 0.00 | 0.00 | 53 | 1008.7 |
| 20260501220405 | 58 | 159 | 7.0 | 16.0 | 0.00 | 0.00 | 0.00 | 52 | 1008.8 |